Mitchell, SD

4:25 AM CDT on April 25, 2018 (GMT -0500)
Mitchell Municipal

Weather History for KMHE - April, 2013

Change the Weather History Date:

Tuesday, April 23, 2013

  Actual Average Record
Temperature  
Mean Temperature 26 °F 51 °F  
Max Temperature 40 °F 64 °F 93 °F (1990)
Min Temperature 12 °F 39 °F 12 °F (2013)
Degree Days  
Heating Degree Days 39 14  
Month to date heating degree days 685 433  
Since 1 July heating degree days 7289 6913  
Cooling Degree Days 0 0  
Month to date cooling degree days 0 0  
Year to date cooling degree days 0 0  
Moisture  
Dew Point 19 °F    
Average Humidity 71    
Maximum Humidity 88    
Minimum Humidity 54    
Precipitation  
Precipitation 0.00 in 0.10 in 1.61 in (1908)
Month to date precipitation 2.16 1.49  
Year to date precipitation 4.53 3.11  
Snow  
Snow 0.00 in - 1.00 in (2001)
Month to date snowfall 19.2  
Since 1 July snowfall 50.5  
Snow Depth 0.00 in    
Sea Level Pressure  
Sea Level Pressure 30.31 in    
Wind  
Wind Speed 10 mph (NW)    
Max Wind Speed 16 mph    
Max Gust Speed 21 mph    
T = Trace of Precipitation, MM = Missing Value Source: NWS Daily Summary

Daily Weather History Graph

Daily Weather History Graph

Search for Another Location

Airport or City:

Astronomy

Apr. 23, 2013 Rise Set
Actual Time 6:35 AM CDT 8:25 PM CDT
Civil Twilight 6:05 AM CDT 8:56 PM CDT
Nautical Twilight 5:27 AM CDT 9:34 PM CDT
Astronomical Twilight 4:47 AM CDT 10:14 PM CDT
Moon 6:19 PM CDT (4/23) 5:09 AM CDT (4/23)
Length of Visible Light 14h 51m
Length of Day
13h 49m
Waxing Gibbous, 94% of the Moon is Illuminated
Apr 23
Waxing Gibbous
Apr 25
Full
May 2
Last Quarter
May 9
New
May 17
First Quarter

Hourly Weather History & Observations

Time (CDT) Temp. Windchill Dew Point Humidity Pressure Visibility Wind Dir Wind Speed Gust Speed Precip Events Conditions
12:53 AM 28.9 °F 18.2 °F 23.0 °F 78% 30.40 in - NNW 13.8 mph - N/A   Overcast
1:53 AM 28.0 °F 18.6 °F 19.9 °F 72% 30.38 in - NNW 10.4 mph - N/A   Overcast
2:53 AM 19.9 °F 7.9 °F 14.0 °F 78% 30.38 in - NW 11.5 mph - N/A   Clear
3:53 AM 19.0 °F 6.1 °F 14.0 °F 81% 30.37 in - NNW 12.7 mph - N/A   Clear
5:53 AM 15.1 °F 2.5 °F 10.0 °F 80% 30.37 in - NW 10.4 mph - N/A   Clear
6:53 AM 12.0 °F -0.4 °F 9.0 °F 88% 30.38 in - WNW 9.2 mph - N/A   Clear
7:53 AM 16.0 °F 3.6 °F 10.0 °F 77% 30.39 in - WNW 10.4 mph - N/A   Clear
8:53 AM 18.0 °F 5.4 °F 12.0 °F 78% 30.39 in - WNW 11.5 mph - N/A   Clear
9:53 AM 21.9 °F 12.5 °F 15.1 °F 75% 30.37 in - NW 8.1 mph - N/A   Clear
10:53 AM 27.0 °F 18.7 °F 18.0 °F 69% 30.37 in - NW 8.1 mph - N/A   Clear
11:53 AM 30.0 °F 20.0 °F 17.1 °F 59% 30.35 in - NNW 12.7 mph - N/A   Clear
12:53 PM 30.9 °F 21.2 °F 18.0 °F 59% 30.32 in - NW 12.7 mph - N/A   Clear
2:53 PM 34.0 °F 25.5 °F 19.9 °F 56% 30.29 in - NW 11.5 mph - N/A   Clear
3:53 PM 36.0 °F 27.1 °F 21.0 °F 55% 30.27 in - NW 13.8 mph - N/A   Clear
4:53 PM 37.9 °F 30.5 °F 23.0 °F 55% 30.25 in - NW 11.5 mph - N/A   Clear
5:53 PM 39.0 °F 33.4 °F 24.1 °F 55% 30.24 in - NW 8.1 mph - N/A   Clear
6:53 PM 39.0 °F 34.0 °F 24.1 °F 55% 30.22 in - NW 6.9 mph - N/A   Clear
7:53 PM 37.9 °F 33.5 °F 23.0 °F 55% 30.22 in - WNW 5.8 mph - N/A   Clear
8:53 PM 36.0 °F 29.6 °F 24.1 °F 62% 30.21 in - WSW 8.1 mph - N/A   Clear
9:53 PM 34.0 °F 27.2 °F 24.1 °F 67% 30.21 in - West 8.1 mph - N/A   Clear
10:53 PM 33.1 °F 24.9 °F 23.0 °F 66% 30.20 in - WSW 10.4 mph - N/A   Clear
11:53 PM 33.1 °F 23.9 °F 21.9 °F 64% 30.19 in - WSW 12.7 mph - N/A   Clear